Rechercher aéroport 
image banner adimage banner ad
image banner ad

DABC - Constantine / Mohamed Boudiaf

Situé à Constantine, Algeria

ICAO - DABC, IATA - CZL

Données fournies par Airmate  

Information générale

Coordonnées: N36°17'7" E6°37'9"
Élévation : 2316 feet MSL.
 
Voir autres Aéroports à Constantine Province

Données opérationnelles

Accessible au public
Heure actuelle UTC:
Heure actuelle locale:
Météo
METAR: DABC 290900Z 16003KT 100V200 CAVOK 13/08 Q1028
TAF: TAF DABC 290500Z 2906/3006 29009KT 6000 FEW030 PROB30 TEMPO 2906/2909 2000 BR BKN008
Voir NOTAMs / SUP AIP / TFR affectant cet aéroport [VIEW]
Fréquences de communication: [VIEW]

Pistes:

Identifiant RWYQFULongueur (ft)Largeur (ft)SurfaceLDA (ft)
16159°9843148
34339°9843148
13136°7874148
31316°7874148

Coordonnées de l'aéroport

Adresse: Constantine Algeria

Vue satellite de DABC